FW7911 Weather Reports


time (UTC)temp
C
wind
direction
speed
KPH
gust
KPH
rain 1hr
cm
rain 24hr
cm
rain mn
cm
humidity
%
barometer
mb
20260502195110 18 172 4.8 8.0 0.00 0.00 0.00 65 1016.2
20260502194110 18 177 8.0 11.3 0.00 0.00 0.00 64 1016.2
20260502193110 18 171 6.4 8.0 0.00 0.00 0.00 64 1016.2
20260502191110 19 183 4.8 8.0 0.00 0.00 0.00 64 1016.1
20260502190110 19 156 1.6 4.8 0.00 0.00 0.00 62 1016.0
20260502185109 20 172 3.2 4.8 0.00 0.00 0.00 61 1016.0
20260502184109 21 168 4.8 8.0 0.00 0.00 0.00 58 1015.8
20260502183109 21 167 3.2 8.0 0.00 0.00 0.00 56 1015.7
20260502182109 23 155 4.8 6.4 0.00 0.00 0.00 53 1015.8
20260502180109 25 289 0.0 1.6 0.00 0.00 0.00 46 1015.7
20260502170114 27 294 0.0 3.2 0.00 0.00 0.00 37 1015.7
20260502162113 27 275 1.6 4.8 0.00 0.00 0.00 38 1015.9
20260502161113 27 271 0.0 3.2 0.00 0.00 0.00 39 1016.2
20260502152113 27 264 0.0 8.0 0.00 0.00 0.00 37 1016.5
20260502151113 27 264 3.2 11.3 0.00 0.00 0.00 34 1016.7
20260502150114 27 312 8.0 9.7 0.00 0.00 0.00 36 1016.8
20260502123111 26 253 4.8 11.3 0.00 0.00 0.00 43 1019.1
20260502122111 25 279 9.7 16.1 0.00 0.00 0.00 43 1019.2
20260502121111 25 305 6.4 19.3 0.00 0.00 0.00 44 1019.4
20260502120111 25 228 8.0 16.1 0.00 0.00 0.00 43 1019.4
20260502114111 25 282 8.0 16.1 0.00 0.00 0.00 45 1019.7
20260502113111 25 246 8.0 17.7 0.00 0.00 0.00 43 1019.8
20260502112111 25 211 6.4 11.3 0.00 0.00 0.00 47 1019.9
20260502111111 25 255 8.0 9.7 0.00 0.00 0.00 47 1020.0
20260502110110 25 282 6.4 27.4 0.00 0.00 0.00 47 1020.2
20260502105111 24 257 8.0 19.3 0.00 0.00 0.00 47 1020.4
20260502103110 24 293 6.4 11.3 0.00 0.00 0.00 49 1020.6
20260502102110 23 248 6.4 12.9 0.00 0.00 0.00 50 1020.7
20260502101110 23 281 3.2 12.9 0.00 0.00 0.00 50 1020.8
20260502100110 23 235 4.8 12.9 0.00 0.00 0.00 49 1021.0
20260502091110 22 296 8.0 16.1 0.00 0.00 0.00 48 1021.4
20260502090110 21 251 8.0 17.7 0.00 0.00 0.00 50 1021.7
20260502080109 18 263 3.2 4.8 0.00 0.00 0.00 57 1021.9
20260502071109 16 274 0.0 1.6 0.00 0.00 0.00 59 1022.2
20260502070109 16 274 0.0 1.6 0.00 0.00 0.00 61 1022.2
20260502063109 15 275 0.0 0.0 0.00 0.00 0.00 64 1022.4
20260502062109 13 275 0.0 0.0 0.00 0.00 0.00 71 1022.4
20260502061109 12 275 0.0 1.6 0.00 0.00 0.00 71 1022.4
20260502060109 12 275 0.0 0.0 0.00 0.00 0.00 72 1022.4
20260502055108 11 275 0.0 0.0 0.00 0.00 0.00 73 1022.4
20260502054108 11 275 0.0 3.2 0.00 0.00 0.00 75 1022.3
20260502052108 10 274 0.0 0.0 0.00 0.00 0.00 78 1022.3
20260502051108 9 274 0.0 0.0 0.00 0.00 0.00 78 1022.2
20260502045108 8 274 0.0 1.6 0.00 0.00 0.00 79 1022.0
20260502044113 8 192 0.0 3.2 0.00 0.00 0.00 80 1022.2
20260502041113 7 191 1.6 3.2 0.00 0.00 0.00 83 1022.1
20260502040113 7 193 1.6 3.2 0.00 0.00 0.00 83 1022.0
20260502035113 7 193 1.6 3.2 0.00 0.00 0.00 82 1022.2
20260502033113 7 232 0.0 6.4 0.00 0.00 0.00 82 1022.2
20260502032112 7 263 0.0 1.6 0.00 0.00 0.00 81 1022.4
20260502030112 7 263 0.0 0.0 0.00 0.00 0.00 80 1022.2
20260502025112 7 263 0.0 0.0 0.00 0.00 0.00 81 1022.2
20260502023112 7 262 1.6 1.6 0.00 0.00 0.00 80 1022.2
20260502022112 7 263 0.0 1.6 0.00 0.00 0.00 80 1022.2
20260502020112 7 263 0.0 1.6 0.00 0.00 0.00 79 1022.2
20260502014112 8 263 0.0 0.0 0.00 0.00 0.00 78 1022.3
20260502012112 8 263 0.0 1.6 0.00 0.00 0.00 75 1022.2
20260502005111 10 263 0.0 1.6 0.00 0.00 0.00 72 1022.2
20260502004111 10 230 0.0 3.2 0.00 0.00 0.00 71 1022.2
20260502002111 10 229 0.0 0.0 0.00 0.00 0.00 68 1022.3
20260502001111 10 229 1.6 4.8 0.00 0.00 0.00 68 1022.3
20260502000111 10 229 3.2 3.2 0.00 0.00 0.00 69 1022.5
20260501234111 10 237 1.6 3.2 0.00 0.00 0.00 71 1022.4
20260501233111 10 237 3.2 4.8 0.00 0.00 0.00 71 1022.5
20260501232111 10 243 1.6 6.4 0.00 0.00 0.00 70 1022.6
20260501231111 11 252 3.2 6.4 0.00 0.00 0.00 68 1022.7
20260501230110 11 142 3.2 4.8 0.00 0.00 0.00 64 1022.5
20260501223110 11 178 4.8 8.0 0.00 0.00 0.00 66 1022.7
20260501221110 12 173 4.8 8.0 0.00 0.00 0.00 65 1022.5
20260501220110 12 118 4.8 8.0 0.00 0.00 0.00 66 1022.6
20260501215110 12 97 4.8 6.4 0.00 0.00 0.00 65 1022.6
20260501214110 12 26 1.6 4.8 0.00 0.00 0.00 67 1022.6
20260501213110 12 158 0.0 1.6 0.00 0.00 0.00 68 1022.5
20260501211110 13 165 1.6 3.2 0.00 0.00 0.00 66 1022.5
20260501210110 13 145 0.0 1.6 0.00 0.00 0.00 69 1022.5
20260501205110 13 152 0.0 1.6 0.00 0.00 0.00 67 1022.4
20260501203111 13 126 4.8 6.4 0.00 0.00 0.00 67 1022.5
20260501202111 15 139 4.8 9.7 0.00 0.00 0.00 64 1022.5
20260501201111 15 108 1.6 3.2 0.00 0.00 0.00 64 1022.7